DW8078 Weather Reports


Display with metric or nautical units.
time (UTC)temp
F
wind
direction
speed
MPH
gust
MPH
rain 1hr
in
rain 24hr
in
rain mn
in
humidity
%
barometer
mb
20170820054223 56 280 0.0 0.0 0.00 0.09 0.02 88 1018.7
20170820052714 56 293 0.0 0.0 0.00 0.09 0.02 89 1018.7
20170820051216 55 293 0.0 0.0 0.00 0.09 0.02 90 1018.8
20170820045715 54 293 0.0 0.0 0.00 0.12 0.02 90 1018.7
20170820044206 54 271 0.0 0.0 0.01 0.12 0.02 89 1018.7
20170820042706 54 279 0.0 0.0 0.01 0.12 0.02 90 1018.7
20170820041212 53 279 0.0 0.0 0.01 0.12 0.02 89 1018.6
20170820035713 53 279 0.0 0.0 0.01 0.13 0.02 89 1018.5
20170820034201 54 279 0.0 0.0 0.00 0.12 0.02 90 1018.7
20170820032705 53 279 0.0 0.0 0.00 0.12 0.02 90 1018.8
20170820031717 53 279 0.0 0.0 0.00 0.12 0.02 90 1018.6
20170820025703 53 279 0.0 0.0 0.00 0.14 0.02 90 1018.6
20170820024207 53 279 0.0 0.0 0.00 0.14 0.02 90 1018.4
20170820022702 53 279 0.0 0.0 0.00 0.14 0.02 89 1018.4
20170820021205 52 279 0.0 0.0 0.00 0.14 0.02 89 1018.5
20170820015655 53 279 0.0 0.0 0.00 0.14 0.02 89 1018.3
20170820014157 53 279 0.0 0.0 0.01 0.14 0.02 89 1018.1
20170820012655 53 279 0.0 0.0 0.01 0.14 0.02 89 1018.0
20170820011156 53 279 0.0 0.0 0.01 0.14 0.02 88 1018.2
20170820005651 53 279 0.0 0.0 0.01 0.16 0.02 88 1018.5
20170820004150 53 279 0.0 0.0 0.00 0.15 0.01 87 1018.7
20170820002649 54 279 0.0 0.0 0.00 0.15 0.01 86 1018.5
20170820001205 55 279 0.0 0.0 0.00 0.15 0.01 86 1018.4
20170819235701 55 279 0.0 0.0 0.00 0.16 0.01 85 1018.4
20170819234140 56 279 0.0 0.0 0.00 0.16 0.01 84 1018.3
20170819232655 56 279 0.0 0.0 0.00 0.16 0.01 84 1018.6
20170819231142 56 279 0.0 0.0 0.00 0.16 0.01 84 1018.5
20170819225640 56 279 0.0 0.0 0.01 0.16 0.01 84 1018.8
20170819224137 57 279 0.0 0.0 0.01 0.16 0.01 83 1018.7
20170819222704 57 279 0.0 0.0 0.01 0.16 0.01 82 1018.6
20170819221132 58 279 0.0 0.0 0.01 0.16 0.01 82 1018.3
20170819215631 58 279 0.0 1.0 0.00 0.15 0.15 81 1018.3
20170819214131 58 279 0.0 0.0 0.00 0.15 0.15 81 1018.4
20170819212633 59 279 0.0 0.0 0.00 0.15 0.15 81 1018.3
20170819211132 59 279 0.0 3.0 0.00 0.15 0.15 81 1018.3
20170819205637 59 279 0.0 0.0 0.00 0.15 0.15 81 1018.5
20170819204123 59 279 0.0 0.0 0.00 0.15 0.15 80 1018.3
20170819202642 60 279 0.0 0.0 0.00 0.15 0.15 79 1018.2
20170819201116 60 279 0.0 0.0 0.00 0.15 0.15 78 1018.1
20170819195619 61 279 0.0 0.0 0.00 0.15 0.15 78 1018.0
20170819194126 61 279 0.0 3.0 0.00 0.15 0.15 78 1017.8
20170819192612 61 279 0.0 5.0 0.00 0.15 0.15 78 1017.8
20170819191109 62 279 0.0 3.0 0.00 0.15 0.15 78 1017.6
20170819185608 62 272 0.0 5.0 0.01 0.15 0.15 78 1017.4
20170819184106 63 275 2.0 5.0 0.01 0.15 0.15 78 1017.4
20170819182604 63 280 0.0 4.0 0.01 0.15 0.15 76 1017.1
20170819181101 64 288 2.0 7.0 0.01 0.15 0.15 75 1016.9
20170819175557 65 289 2.0 6.0 0.00 0.15 0.14 74 1016.8
20170819174103 66 281 3.0 9.0 0.00 0.15 0.14 74 1016.6
20170819172603 66 265 3.0 7.0 0.00 0.15 0.14 73 1016.4
20170819171055 67 273 2.0 7.0 0.00 0.15 0.14 75 1016.6
20170819165557 67 257 0.0 4.0 0.00 0.15 0.14 76 1016.1
20170819164059 67 290 0.0 7.0 0.00 0.15 0.14 76 1016.1
20170819162610 67 249 0.0 6.0 0.00 0.15 0.14 75 1016.0
20170819161049 67 274 3.0 9.0 0.00 0.15 0.14 73 1016.1
20170819155558 67 222 0.0 5.0 0.00 0.15 0.14 74 1016.0
20170819154046 67 282 0.0 0.0 0.00 0.15 0.14 75 1016.1
20170819152547 66 270 0.0 6.0 0.01 0.15 0.14 75 1016.2
20170819151046 67 292 1.0 8.0 0.01 0.15 0.14 74 1016.2
20170819145543 66 316 7.0 12.0 0.01 0.15 0.14 74 1016.1
20170819144043 67 279 2.0 7.0 0.01 0.15 0.14 75 1016.1
20170819142559 65 261 3.0 8.0 0.00 0.14 0.13 78 1016.0
20170819141041 65 277 1.0 7.0 0.00 0.14 0.13 77 1016.0
20170819135543 65 300 2.0 7.0 0.00 0.14 0.13 78 1015.9
20170819134044 65 313 3.0 6.0 0.00 0.14 0.13 77 1015.9
20170819132545 65 283 0.0 4.0 0.00 0.14 0.13 77 1016.0
20170819131102 66 304 0.0 6.0 0.00 0.14 0.13 75 1016.0
20170819125539 66 310 1.0 6.0 0.00 0.15 0.13 77 1016.0
20170819124037 65 313 2.0 11.0 0.00 0.15 0.13 77 1015.7
20170819122537 66 267 4.0 10.0 0.00 0.15 0.13 76 1015.6
20170819121036 66 325 2.0 12.0 0.00 0.15 0.13 75 1015.5
20170819115540 67 286 6.0 14.0 0.00 0.16 0.13 74 1015.3
20170819114037 67 314 9.0 15.0 0.01 0.16 0.13 73 1014.8
20170819112531 67 310 8.0 15.0 0.01 0.16 0.13 75 1014.8
20170819111027 68 315 6.0 13.0 0.01 0.16 0.13 75 1014.4
20170819105523 68 315 6.0 14.0 0.01 0.16 0.13 75 1014.0
20170819104022 68 314 11.0 15.0 0.00 0.15 0.13 74 1014.0
20170819102521 68 309 5.0 13.0 0.01 0.15 0.13 73 1014.0
20170819101028 68 288 5.0 10.0 0.01 0.15 0.13 75 1013.8
20170819095521 67 312 5.0 12.0 0.01 0.15 0.13 77 1013.9
20170819094019 67 355 3.0 14.0 0.01 0.15 0.13 79 1013.5
20170819092520 67 324 6.0 14.0 0.00 0.14 0.12 78 1013.4
20170819091019 67 345 10.0 16.0 0.00 0.14 0.12 78 1013.4
20170819085522 67 288 6.0 12.0 0.01 0.14 0.12 80 1013.5
20170819084014 67 269 5.0 10.0 0.01 0.14 0.12 82 1013.4
20170819082532 67 312 1.0 15.0 0.01 0.14 0.12 84 1013.2
20170819081016 66 301 6.0 10.0 0.02 0.14 0.12 85 1012.7
20170819075512 66 306 2.0 7.0 0.01 0.13 0.11 88 1012.4
20170819074010 66 296 6.0 10.0 0.01 0.13 0.11 88 1012.3
20170819072501 66 306 3.0 9.0 0.01 0.13 0.11 89 1012.3
20170819071002 66 302 1.0 7.0 0.01 0.13 0.10 88 1012.2
20170819065457 66 290 0.0 3.0 0.01 0.13 0.10 87 1011.7
20170819063959 67 312 4.0 8.0 0.01 0.13 0.10 86 1011.2
20170819062455 67 302 3.0 9.0 0.02 0.13 0.10 85 1011.4
20170819060953 68 286 3.0 7.0 0.01 0.12 0.09 84 1010.9
20170819055450 68 281 2.0 10.0 0.02 0.12 0.09 83 1010.8